Miscellaneous Local Product
Issued by NWS North Platte, NE

Home | Current Version | Previous Version | Text Only | Print | Product List | Glossary On
Versions: 1 2 3 4 5 6 7 8 9 10 11 12 13 14 15 16 17 18 19 20 21 22 23 24 25 26 27 28 29 30 31 32 33 34 35 36 37 38 39 40 41 42 43 44 45 46 47 48 49 50
000
AXUS43 KLBF 090310
MISLBF


WESTERN AND NORTH CENTRAL NEBRASKA HOURLY WEATHER ROUNDUP
NATIONAL WEATHER SERVICE NORTH PLATTE NE
900 PM CST THU DEC 08 2016

NOTE: "FAIR" INDICATES FEW OR NO CLOUDS BELOW 12,000 FEET WITH NO
SIGNIFICANT WEATHER AND/OR OBSTRUCTIONS TO VISIBILITY.

NOTE: STATIONS NOT REPORTING VARIABLES SUCH AS SKY/WEATHER OR
PRESSURE ARE PROVIDED BY RAWS AND APRS NETWORKS AND ARE NOT UNDER
NATIONAL WEATHER SERVICE QUALITY CONTROL.

...OBSERVATIONS IN AND NEAR THE EASTERN PANHANDLE OF NEBRASKA...

CITY           SKY/WX    TMP DP  RH WIND       PRES   REMARKS
PINE RIDGE     CLOUDY    -6 -10  83 E3        30.42F
CHADRON        CLOUDY    -1  -8  72 N3        30.40F
ALLIANCE       CLOUDY     3  -3  76 S13       30.36F WCI -14
SIDNEY         CLOUDY     4  -2  76 S9        30.35F WCI -10
CRESCENT LAKE    N/A      7   1  75 SE5         N/A  WCI  -2
$$

...OBSERVATIONS IN NORTHERN NEBRASKA AND FAR SOUTHERN SOUTH DAKOTA...

CITY           SKY/WX    TMP DP  RH WIND       PRES   REMARKS
WINNER         FAIR       2  -4  76 CALM      30.58F
VALENTINE      CLOUDY    -1  -7  75 CALM      30.52F
THEDFORD       CLOUDY     3  -5  66 CALM      30.51S
AINSWORTH      CLEAR      4  -3  74 CALM      30.52F
O`NEILL        CLEAR      5   0  78 NW6       30.59F WCI  -6
ORD            CLEAR      2  -4  76 CALM      30.58F
BROKEN BOW     CLEAR      3  -3  76 CALM      30.53F
BUTTE            N/A      4  -1  79 W7          N/A  WCI  -8
HALSEY           N/A      7  -6  56 CALM        N/A
CHAMBERS         N/A      4 -12  47 CALM        N/A
EWING            N/A      8   2  76 CALM        N/A
$$

...OBSERVATIONS IN SOUTHWEST NEBRASKA AND FAR NORTHEAST COLORADO...

CITY           SKY/WX    TMP DP  RH WIND       PRES   REMARKS
WRAY           FAIR       9   1  72 SE6       30.43F WCI  -1
HOLYOKE        FAIR       3  -4  72 S5        30.43F WCI  -6
IMPERIAL       CLOUDY     3  -3  76 S5        30.48F WCI  -6
OGALLALA       CLOUDY     8   1  72 CALM      30.47F
NORTH PLATTE   CLOUDY     4  -2  76 CALM      30.52F
MCCOOK         CLOUDY     2  -2  83 SW8       30.55F WCI -12
LEXINGTON      CLOUDY     9   2  71 CALM      30.55F
STAPLETON        N/A      5  -4  66 CALM        N/A
GOTHENBURG       N/A      9   0  67 CALM        N/A
CALLAWAY         N/A      1  -5  76 CALM        N/A
$$

...OBSERVATIONS IN CENTRAL LINCOLN COUNTY AREA...

CITY           SKY/WX    TMP DP  RH WIND       PRES   REMARKS
N.P. AIRPORT   CLOUDY     4  -2  76 CALM      30.52F
N.P. DOWNTOWN    N/A      8   1  73 CALM        N/A
N.P. SOUTHEAST   N/A      8   2  78 CALM        N/A
N.P. HILLCREST   N/A     11   3  68 CALM        N/A
$$

...SOME OBSERVATIONS FROM AROUND THE REGION...

CITY           SKY/WX    TMP DP  RH WIND       PRES   REMARKS
LARAMIE        CLOUDY    15   5  64 CALM      30.06F
CHEYENNE       CLOUDY     7   2  80 S8        30.17F WCI  -6
DENVER         CLOUDY     8   3  80 CALM      30.23F
AKRON          CLOUDY    10   4  76 S9        30.32F WCI  -3
SCOTTSBLUFF    CLOUDY     4  -3  73 E6        30.35F WCI  -7
RAPID CITY     CLOUDY    -2  -8  76 CALM      30.43F
BISMARCK       CLOUDY    -2  -7  79 W6        30.61F WCI -14
PIERRE         CLOUDY     4  -2  76 N6        30.61S WCI  -7
SIOUX FALLS    CLEAR      9   4  80 NW12      30.58F WCI  -6
OMAHA          CLEAR     14   6  70 NW8       30.65R WCI   3
GRAND ISLAND   CLEAR      9   2  73 NW3       30.60F
KANSAS CITY    CLEAR     18   8  65 NW5       30.63S WCI  11
WICHITA        CLEAR     21  10  62 N6        30.66S WCI  13
OKLAHOMA CITY  CLOUDY    29   6  38 N9        30.65S WCI  20
DALLAS         PTCLDY    33  16  49 N10       30.65S WCI  25
AMARILLO       CLOUDY    24   9  52 S9        30.53S WCI  14
DODGE CITY     CLOUDY    14   6  70 NW3       30.58F
HAYS           CLOUDY    11   5  77 CALM      30.62F
GOODLAND       CLOUDY     8   1  73 S9        30.45F WCI  -5
$$




USA.gov is the U.S. government's official web portal to all federal, state and local government web resources and services.